Regional Weather Roundup
Issued by NWS Little Rock, AR

Home | Current Version | Previous Version | Graphics & Text | Print | Product List | Glossary On
Versions: 1 2 3 4 5 6 7 8 9 10 11 12 13 14 15 16 17 18 19 20 21 22 23 24 25 26 27 28 29 30 31 32 33 34 35 36 37 38 39 40 41 42 43 44 45 46 47 48 49 50
000
ASUS44 KLZK 280905
RWRLZK

WEATHER ROUNDUP FOR ARKANSAS
NATIONAL WEATHER SERVICE LITTLE ROCK AR
400 AM CDT MON JUL 28 2014

NOTE: "FAIR" INDICATES FEW OR NO CLOUDS BELOW 12,000 FEET WITH NO
SIGNIFICANT WEATHER AND/OR OBSTRUCTIONS TO VISIBILITY.

ARZ001-003-010-029-281000-
NORTHWEST ARKANSAS

CITY           SKY/WX    TMP DP  RH WIND       PRES   REMARKS
FAYETTEVILLE   CLEAR     62  61  96 CALM      30.13R
FORT SMITH     CLEAR     74  63  68 CALM      30.08R
HARRISON       CLEAR     67  60  78 NW5       30.13R
BENTONVILLE    CLEAR     68  61  77 N6        30.14S
ROGERS         CLEAR     66  62  87 N5        30.15R
SILOAM SPGS    CLEAR     68  57  68 NE7       30.14S
HIGHFILL       CLEAR     67  62  84 N6        30.14R
$$

ARZ004-005-016-281000-
NORTH CENTRAL ARKANSAS

CITY           SKY/WX    TMP DP  RH WIND       PRES   REMARKS
BATESVILLE     CLEAR     72  64  78 NW3       30.05R
FLIPPIN        CLEAR     72  59  64 NW3       30.09R
MTN HOME       CLEAR     65  59  81 CALM      30.08R
$$

ARZ040-041-281000-
WEST CENTRAL ARKANSAS

CITY           SKY/WX    TMP DP  RH WIND       PRES   REMARKS
MENA           CLEAR     77  70  78 CALM      30.10R
MOUNT IDA      CLEAR     74  73  97 CALM      30.05R FOG
$$

ARZ009-017-025-026-028-281000-
NORTHEAST ARKANSAS

CITY           SKY/WX    TMP DP  RH WIND       PRES   REMARKS
CORNING        FAIR      70  61  73 NW6       30.03R
JONESBORO      CLEAR     72  62  71 N6        30.02R
NEWPORT        CLEAR     71  64  78 NW8       30.03R
WALNUT RIDGE   CLEAR     68  61  77 NW5       30.02R
BLYTHEVILLE    CLEAR     66  64  93 N5        30.01R
$$

ARZ022-023-033-042-044-281000-
CENTRAL ARKANSAS

CITY           SKY/WX    TMP DP  RH WIND       PRES   REMARKS
LITTLE ROCK    PTCLDY    77  64  64 N7        30.04R
N LITTLE ROCK    N/A     76  67  74 N6        30.04R
JACKSONVILLE   PTCLDY    72  67  85 W2        30.04R
SEARCY         CLEAR     75  65  71 NW3       30.04R
HOT SPRINGS    CLOUDY    79  72  79 CALM      30.05R
RUSSELLVILLE   CLEAR     72  69  90 CALM      30.05R
CLINTON        FAIR      68  66  94 CALM      30.07R
$$

ARZ036-281000-
EAST ARKANSAS

CITY           SKY/WX    TMP DP  RH WIND       PRES   REMARKS
WEST MEMPHIS   CLEAR     73  69  87 N6        29.98R
$$

ARZ050-053-066-070-073-281000-
SOUTHWEST ARKANSAS

CITY           SKY/WX    TMP DP  RH WIND       PRES   REMARKS
ARKADELPHIA    FAIR      78  76  94 CALM      30.03R
CAMDEN         PTCLDY    79  73  83 N3        30.01R
TEXARKANA      PTCLDY    80  76  87 N3        30.03R HX  86
EL DORADO      MOCLDY    79  73  82 W3        30.02R
DE QUEEN       CLOUDY    76  74  93 CALM      30.02R
$$

ARZ056-057-069-281000-
SOUTHEAST ARKANSAS

CITY           SKY/WX    TMP DP  RH WIND       PRES   REMARKS
PINE BLUFF     MOCLDY    80  68  66 N7        30.01S
STUTTGART      CLEAR     75  68  78 N9        30.02R
MONTICELLO     MOCLDY    81  75  82 NW3       29.99S HX  87

$$




USA.gov is the U.S. government's official web portal to all federal, state and local government web resources and services.